星链-3698 (STARLINK-3698 )

导读 | 星芒AI

STARLINK-3698 是 SpaceX Starlink 项目中的一颗低轨通信卫星,属于该星座的众多组网卫星之一。该卫星旨在提供全球范围内的高速互联网服务,尤其服务于传统网络难以覆盖的偏远地区。它运行在约 550 公里的轨道高度,采用先进的通信技术,支持高带宽、低延迟的数据传输。STARLINK-3698 的发射和运行有助于增强 Starlink 网络的稳定性和覆盖能力,为全球用户提供更优质的互联网接入服务。

基本信息
目录编号:
52108
目录名称:
STARLINK-3698
国际标识:
2022-029W
轨道中心:
EARTH
卫星名称:
星链-3698
卫星全名:
星链-3698 (STARLINK-3698 )
卫星状态:
在轨 (已飞行1373 天)
发射日期:
2022-03-19 UTC
国别 :
美国 (US)
星等 :
--
轨道信息
数据来源 国际轨道数据 AOE轨道数据
星历时间 2025-12-20T19:26:39+0800
13小时前
查看轨道信息
2025-12-20T03:00:00+0800
1天前
查看轨道信息
半长轴 6917.846km 6917.729km
偏心率 0.000138 0.0001578
轨道倾角 53.218° 53.217°
近地点辐角 104.358° 86.752°
升交点赤经 74.722° 77.796°
平近点角 255.756° 149.609°
近地点 538.754km 538.5km
远地点 540.664km 540.684km
周期 95.437分钟 95.434分钟
每日圈数 15.088513 15.088897
详细信息
固有亮度:
5
最大亮度:
2.5
卫星平台:
Starlink v1.5
覆盖范围:
全球
运营商:
太空探索技术公司
运营商所在国:
美国
制造商(研发单位):
太空探索技术公司
制造商所在国:
美国
使用方式:
暂无
卫星简介
星链(Starlink)计划是由太空探索技术公司(SpaceX)提出的一个巨型低轨卫星互联网星座项目,计划在2019年至2024年间在太空搭建由约1.2万颗卫星组成的“星链”网络,其中1584颗将部署在地球上空550千米处的近地轨道,并从2020年开始工作。该卫星仍在工作。
2D轨道图
3D轨道图
轨道高度分析图
轨道倾角分析图
轨道综合分析图
查看轨道综合分析图